This is the latest recevied weather packets stored in our database for station/object KM5R. If no packets are shown the sender has not sent any weather packets the latest 10 day(s).
| Time | Temp. | Humidity | Pressure | Rain* | Wind** | Luminosity | Snow |
|---|---|---|---|---|---|---|---|
| 1778047782 | 19.44° C | 76% | 1010.8 hPa | 0 mm | - | 0 W/m² | - |
| 1778047480 | 19.44° C | 76% | 1010.7 hPa | 0 mm | - | 0 W/m² | - |
| 1778047176 | 20° C | 76% | 1010.9 hPa | 0 mm | - | 0 W/m² | - |
| 1778046873 | 20° C | 76% | 1010.8 hPa | 0 mm | - | 0 W/m² | - |
| 1778046570 | 20° C | 75% | 1011 hPa | 0 mm | - | 0 W/m² | - |
| 1778046267 | 20° C | 75% | 1010.7 hPa | 0 mm | - | 0 W/m² | - |
| 1778045963 | 20.56° C | 75% | 1010.7 hPa | 0 mm | - | 0 W/m² | - |
| 1778045661 | 20.56° C | 74% | 1010.7 hPa | 0 mm | - | 0 W/m² | - |
| 1778045360 | 20.56° C | 74% | 1010.9 hPa | 0 mm | - | 0 W/m² | - |
| 1778045058 | 20.56° C | 73% | 1010.6 hPa | 0 mm | - | 0 W/m² | - |
| 1778044755 | 21.11° C | 73% | 1010.7 hPa | 0 mm | - | 0 W/m² | - |
| 1778044452 | 21.11° C | 73% | 1010.8 hPa | 0 mm | - | 0 W/m² | - |
| 1778044148 | 21.11° C | 72% | 1010.8 hPa | 0 mm | - | 0 W/m² | - |
| 1778043846 | 21.67° C | 72% | 1010.8 hPa | 0 mm | - | 0 W/m² | - |
| 1778043543 | 21.67° C | 72% | 1010.8 hPa | 0 mm | - | 0 W/m² | - |
| 1778043240 | 21.67° C | 73% | 1010.8 hPa | 0 mm | - | 0 W/m² | - |
| 1778042936 | 22.22° C | 73% | 1010.8 hPa | 0 mm | - | 0 W/m² | - |
| 1778042634 | 22.22° C | 73% | 1010.8 hPa | 0 mm | - | 0 W/m² | - |
| 1778042331 | 22.78° C | 75% | 1010.8 hPa | 0 mm | - | 0 W/m² | - |
| 1778042028 | 24.44° C | 79% | 1010.8 hPa | 0 mm | - | 0 W/m² | - |
| 1778041727 | 24.44° C | 79% | 1010.5 hPa | 0 mm | - | 0 W/m² | - |
| 1778041425 | 24.44° C | 79% | 1010.7 hPa | 0 mm | - | 0 W/m² | - |
| 1778041124 | 24.44° C | 78% | 1010.4 hPa | 0 mm | - | 0 W/m² | - |
| 1778040820 | 24.44° C | 78% | 1010.3 hPa | 0 mm | - | 0 W/m² | - |
| 1778040517 | 24.44° C | 78% | 1010.3 hPa | 0 mm | - | 0 W/m² | - |
* Rain latest hour (hover to see other rain measurements)
** Current wind speed in m/s (hover to see current wind gust speed)